TimePDT,TemperatureF,Dew PointF,Humidity,Sea Level PressureIn,VisibilityMPH,Wind Direction,Wind SpeedMPH,Gust SpeedMPH,PrecipitationIn,Events,Conditions,WindDirDegrees,DateUTC
12:10 AM,41.0,33.8,76,30.15,10.0,West,5.8,-,N/A,,Clear,270,2014-05-10 07:10:00
12:30 AM,39.2,33.8,81,30.14,10.0,West,5.8,-,N/A,,Clear,270,2014-05-10 07:30:00
12:50 AM,39.2,33.8,81,30.15,10.0,West,4.6,-,N/A,,Clear,280,2014-05-10 07:50:00
1:10 AM,39.2,33.8,81,30.14,10.0,WNW,5.8,-,N/A,,Clear,290,2014-05-10 08:10:00
1:30 AM,37.4,33.8,87,30.14,10.0,WNW,4.6,-,N/A,,Clear,300,2014-05-10 08:30:00
1:50 AM,39.2,33.8,81,30.14,10.0,West,4.6,-,N/A,,Clear,280,2014-05-10 08:50:00
2:10 AM,37.4,33.8,87,30.13,10.0,West,5.8,-,N/A,,Clear,280,2014-05-10 09:10:00
2:30 AM,37.4,33.8,87,30.13,10.0,NW,5.8,-,N/A,,Clear,320,2014-05-10 09:30:00
2:50 AM,37.4,33.8,87,30.13,10.0,WNW,3.5,-,N/A,,Clear,300,2014-05-10 09:50:00
3:10 AM,35.6,32.0,87,30.12,10.0,Calm,Calm,-,N/A,,Clear,0,2014-05-10 10:10:00
3:30 AM,35.6,32.0,87,30.13,10.0,Calm,Calm,-,N/A,,Clear,0,2014-05-10 10:30:00
3:50 AM,35.6,33.8,93,30.13,10.0,West,3.5,-,N/A,,Clear,270,2014-05-10 10:50:00
4:10 AM,35.6,32.0,87,30.13,10.0,West,3.5,-,N/A,,Clear,280,2014-05-10 11:10:00
4:30 AM,35.6,32.0,87,30.13,10.0,West,3.5,-,N/A,,Partly Cloudy,260,2014-05-10 11:30:00
4:50 AM,35.6,32.0,87,30.13,10.0,Calm,Calm,-,N/A,,Partly Cloudy,0,2014-05-10 11:50:00
5:10 AM,35.6,32.0,87,30.13,10.0,Calm,Calm,-,N/A,,Mostly Cloudy,0,2014-05-10 12:10:00
5:30 AM,35.6,32.0,87,30.13,10.0,West,3.5,-,N/A,,Overcast,270,2014-05-10 12:30:00
5:50 AM,35.6,33.8,93,30.12,10.0,West,3.5,-,N/A,,Overcast,280,2014-05-10 12:50:00
6:10 AM,37.4,33.8,87,30.12,10.0,West,3.5,-,N/A,,Mostly Cloudy,270,2014-05-10 13:10:00
6:30 AM,37.4,33.8,87,30.13,10.0,Calm,Calm,-,N/A,,Overcast,0,2014-05-10 13:30:00
6:50 AM,39.2,35.6,87,30.13,10.0,Calm,Calm,-,N/A,,Overcast,0,2014-05-10 13:50:00
7:10 AM,39.2,35.6,87,30.13,10.0,Calm,Calm,-,N/A,,Mostly Cloudy,0,2014-05-10 14:10:00
7:30 AM,41.0,35.6,81,30.13,10.0,Calm,Calm,-,N/A,,Overcast,0,2014-05-10 14:30:00
7:50 AM,42.8,35.6,76,30.13,10.0,Calm,Calm,-,N/A,,Overcast,0,2014-05-10 14:50:00
8:10 AM,44.6,37.4,76,30.14,10.0,Calm,Calm,-,N/A,,Overcast,0,2014-05-10 15:10:00
8:30 AM,44.6,37.4,76,30.14,10.0,SSE,3.5,-,N/A,,Scattered Clouds,150,2014-05-10 15:30:00
8:50 AM,46.4,37.4,71,30.13,10.0,SE,3.5,-,N/A,,Partly Cloudy,140,2014-05-10 15:50:00
9:10 AM,48.2,37.4,66,30.12,10.0,South,4.6,-,N/A,,Partly Cloudy,180,2014-05-10 16:10:00
9:30 AM,48.2,37.4,66,30.11,10.0,SSE,4.6,-,N/A,,Partly Cloudy,160,2014-05-10 16:30:00
9:50 AM,50.0,37.4,62,30.11,10.0,SE,4.6,-,N/A,,Scattered Clouds,130,2014-05-10 16:50:00
10:10 AM,50.0,37.4,62,30.10,10.0,SE,5.8,-,N/A,,Mostly Cloudy,140,2014-05-10 17:10:00
10:30 AM,53.6,35.6,51,30.09,10.0,SE,5.8,-,N/A,,Mostly Cloudy,140,2014-05-10 17:30:00
10:50 AM,55.4,33.8,44,30.10,10.0,North,4.6,-,N/A,,Overcast,350,2014-05-10 17:50:00
11:10 AM,53.6,32.0,44,30.10,10.0,WNW,11.5,24.2,N/A,,Mostly Cloudy,290,2014-05-10 18:10:00
11:30 AM,57.2,28.4,33,30.10,10.0,North,8.1,19.6,N/A,,Partly Cloudy,350,2014-05-10 18:30:00
11:50 AM,53.6,30.2,41,30.11,10.0,NNE,9.2,21.9,N/A,,Clear,30,2014-05-10 18:50:00
12:10 PM,55.4,30.2,38,30.11,10.0,North,15.0,24.2,N/A,,Partly Cloudy,360,2014-05-10 19:10:00
12:30 PM,55.4,32.0,41,30.11,10.0,NNE,8.1,-,N/A,,Clear,20,2014-05-10 19:30:00
12:50 PM,57.2,32.0,38,30.10,10.0,NE,6.9,-,N/A,,Clear,40,2014-05-10 19:50:00
1:10 PM,57.2,30.2,36,30.10,10.0,North,8.1,-,N/A,,Scattered Clouds,10,2014-05-10 20:10:00
1:30 PM,59.0,28.4,31,30.10,10.0,NE,8.1,-,N/A,,Partly Cloudy,40,2014-05-10 20:30:00
1:50 PM,57.2,26.6,31,30.10,10.0,NNE,10.4,18.4,N/A,,Mostly Cloudy,20,2014-05-10 20:50:00
2:10 PM,60.8,24.8,25,30.09,10.0,NNE,12.7,24.2,N/A,,Partly Cloudy,20,2014-05-10 21:10:00
2:30 PM,60.8,24.8,25,30.09,10.0,NNE,12.7,23.0,N/A,,Clear,20,2014-05-10 21:30:00
2:50 PM,60.8,23.0,23,30.09,10.0,NE,13.8,23.0,N/A,,Clear,40,2014-05-10 21:50:00
3:10 PM,62.6,23.0,22,30.09,10.0,NNW,13.8,21.9,N/A,,Clear,330,2014-05-10 22:10:00
3:30 PM,62.6,19.4,19,30.09,10.0,NNW,6.9,20.7,N/A,,Clear,340,2014-05-10 22:30:00
3:50 PM,62.6,23.0,22,30.09,10.0,North,6.9,16.1,N/A,,Clear,360,2014-05-10 22:50:00
4:10 PM,62.6,19.4,19,30.10,10.0,NW,12.7,21.9,N/A,,Clear,320,2014-05-10 23:10:00
4:30 PM,62.6,19.4,19,30.09,10.0,NNW,15.0,23.0,N/A,,Clear,330,2014-05-10 23:30:00
4:50 PM,62.6,24.8,24,30.09,10.0,North,10.4,17.3,N/A,,Clear,10,2014-05-10 23:50:00
5:10 PM,62.6,23.0,22,30.09,10.0,North,6.9,25.3,N/A,,Clear,10,2014-05-11 00:10:00
5:30 PM,62.6,23.0,22,30.09,10.0,NNE,10.4,21.9,N/A,,Clear,30,2014-05-11 00:30:00
5:50 PM,62.6,19.4,19,30.10,10.0,North,11.5,19.6,N/A,,Clear,360,2014-05-11 00:50:00
6:10 PM,60.8,19.4,20,30.10,10.0,North,8.1,21.9,N/A,,Clear,360,2014-05-11 01:10:00
6:30 PM,60.8,23.0,23,30.10,10.0,North,6.9,-,N/A,,Clear,10,2014-05-11 01:30:00
6:50 PM,59.0,23.0,25,30.10,10.0,North,8.1,-,N/A,,Clear,360,2014-05-11 01:50:00
7:10 PM,59.0,23.0,25,30.10,10.0,North,6.9,18.4,N/A,,Clear,360,2014-05-11 02:10:00
7:30 PM,57.2,24.8,29,30.11,10.0,NNW,8.1,-,N/A,,Clear,340,2014-05-11 02:30:00
7:50 PM,55.4,26.6,33,30.12,10.0,WNW,3.5,-,N/A,,Clear,300,2014-05-11 02:50:00
8:10 PM,53.6,28.4,38,30.13,10.0,WNW,4.6,-,N/A,,Clear,300,2014-05-11 03:10:00
8:30 PM,50.0,30.2,47,30.14,10.0,Calm,Calm,-,N/A,,Clear,0,2014-05-11 03:30:00
8:50 PM,50.0,32.0,50,30.15,10.0,Calm,Calm,-,N/A,,Clear,0,2014-05-11 03:50:00
9:10 PM,48.2,32.0,54,30.16,10.0,Calm,Calm,-,N/A,,Clear,0,2014-05-11 04:10:00
9:30 PM,46.4,32.0,57,30.16,10.0,Calm,Calm,-,N/A,,Clear,0,2014-05-11 04:30:00
9:50 PM,46.4,32.0,57,30.17,10.0,NNW,4.6,-,N/A,,Clear,330,2014-05-11 04:50:00
10:10 PM,44.6,32.0,61,30.18,8.0,WNW,3.5,-,N/A,,Clear,290,2014-05-11 05:10:00
10:30 PM,44.6,32.0,61,30.19,10.0,Calm,Calm,-,N/A,,Clear,0,2014-05-11 05:30:00
10:50 PM,44.6,32.0,61,30.19,10.0,WNW,3.5,-,N/A,,Clear,290,2014-05-11 05:50:00
11:10 PM,44.6,32.0,61,30.20,9.0,WNW,6.9,-,N/A,,Clear,290,2014-05-11 06:10:00
11:30 PM,42.8,32.0,66,30.20,10.0,West,4.6,-,N/A,,Clear,270,2014-05-11 06:30:00
11:50 PM,44.6,32.0,61,30.22,10.0,West,4.6,-,N/A,,Clear,260,2014-05-11 06:50:00